Regional Weather Roundup
Issued by NWS

Home | Current Version | Previous Version | Text Only | Print | Product List | Glossary On
Versions: 1 2 3 4 5 6 7 8 9 10 11 12 13 14 15 16 17 18 19 20 21 22 23 24 25 26 27 28 29 30 31 32 33 34 35 36 37 38 39 40 41 42 43 44 45 46 47 48 49 50
000
ASUS43 KDTX 251110
RWRMI
MICHIGAN HOURLY REGIONAL WEATHER ROUNDUP
NATIONAL WEATHER SERVICE DETROIT/PONTIAC MI
700 AM EDT WED APR 25 2018

NOTE: "FAIR" INDICATES FEW OR NO CLOUDS BELOW 12,000 FEET WITH NO
SIGNIFICANT WEATHER AND/OR OBSTRUCTION TO VISIBILITY.

MIZ047>049-052>055-059>063-066>070-074>076-081>083-251200-
SOUTHEAST LOWER MICHIGAN

CITY           SKY/WX    TMP DP  RH WIND       PRES   REMARKS
ADRIAN         CLOUDY    50  50 100 N7        29.92R FOG
ALMA           CLOUDY    43  37  78 N9        29.99S
ANN ARBOR      CLOUDY    51  50  96 NW9       29.91S
BAD AXE        LGT RAIN  43  38  85 N10       29.96R
CARO           LGT RAIN  43  39  86 N10       29.96R
DETROIT CITY   CLOUDY    51  50  96 N3        29.90S FOG
DETROIT        LGT RAIN  52  49  89 N7        29.91R FOG
FLINT          CLOUDY    44  41  89 N13       29.96R
GROSSE ILE     CLOUDY    50  49  98 N5        29.89S FOG
HILLSDALE      DRIZZLE   50  46  87 N14       29.92R
HOWELL         CLOUDY    47  47  99 N10G21    29.93S FOG

CITY           SKY/WX    TMP DP  RH WIND       PRES   REMARKS
JACKSON        CLOUDY    48  48 100 NW9G18    29.94R FOG
LAMBERTVILLE   CLOUDY    52  50  92 N5        29.90S FOG
LANSING        CLOUDY    44  40  85 N12       29.98S
LAPEER         CLOUDY    43  42  97 N7        29.95R FOG
MASON          CLOUDY    46  43  89 N10       29.96R FOG
MONROE         CLOUDY    50  48  93 N3        29.89S FOG
MT. CLEMENS    CLOUDY    51  51 100 N6        29.89S
PONTIAC        CLOUDY    50  49  96 N14G23    29.91R FOG
PORT HOPE        N/A     39  37  92 NW13      29.94R WCI  31
PORT HURON     LGT RAIN  45  43  93 N12G17    29.92R
TRI CITIES     CLOUDY    44  38  79 N10       29.98S
MIDLAND        CLOUDY    41  36  82 NW7       29.98S
TROY           CLOUDY    51  50  95 N5        29.92S
SAGINAW HB     CLOUDY    43  37  81 N9        29.98S
$$
MIZ043>046-050>051-056>058-064>065-071>073-077>080-251200-
SOUTHWEST LOWER MICHIGAN

CITY           SKY/WX    TMP DP  RH WIND       PRES   REMARKS
BATTLE CREEK   MOCLDY    46  40  79 N9        29.98R
BENTON HARBOR  FAIR      43  37  79 VRB7      30.02R
BIG RAPIDS     FAIR      38  32  76 N5        30.02S WCI  35
COLDWATER      CLOUDY    51  49  93 N9G17     29.95R
FREMONT        FAIR      40  28  61 N8        30.03S WCI  35
HOLLAND        FAIR      45  32  60 N3        30.03R
GRAND RAPIDS   MOCLDY    44  34  67 N10       30.00R
IONIA          CLOUDY    44  35  69 N10       29.99R
KALAMAZOO      CLOUDY    47  41  80 N13       29.98S
LUDINGTON      FAIR      38  32  81 N8        30.07R WCI  32
MARSHALL       CLOUDY    46  45  98 N7        29.96R
MOUNT PLEASANT MOCLDY    43  36  75 NW3       29.99S
MUSKEGON       FAIR      44  30  57 N9        30.05R
SOUTH HAVEN    FAIR      46  34  63 N6        30.02R
$$
MIZ016>042-251200-
NORTHERN LOWER MICHIGAN

CITY           SKY/WX    TMP DP  RH WIND       PRES   REMARKS
ALPENA         LGT RAIN  39  38  96 NW9       30.00S WCI  33
BEAVER ISLAND  FAIR      36  33  90 NW8       30.08R WCI  29
BELLAIRE       FAIR      36  32  87 CALM      30.07R
CADILLAC       FAIR      35  33  93 N8        30.02S WCI  28
CHARLEVOIX     FAIR      34  33  96 NW5       30.09R WCI  30
FRANKFORT      FAIR      37  33  85 N8        30.09R WCI  31
GAYLORD        CLOUDY    35  35 100 W6        30.01S WCI  30
HARBOR SPRINGS MOCLDY    36  34  93 NW3       30.05R
HOUGHTON LAKE  FAIR      39  33  79 N9        30.00S WCI  33
MANISTEE       FAIR      37  33  85 NW7       30.08R WCI  32
OSCODA         LGT SNOW  40  38  91 NW13G21   29.97S WCI  32
PELLSTON       CLOUDY    36  33  89 NW7       30.05R WCI  30
ROGERS CITY    LGT RAIN  38  37  93 NW7       30.03R WCI  33
TRAVERSE CITY  FAIR      38  32  79 N6        30.06S WCI  33
$$
MIZ007>008-015-251200-
EASTERN UPPER MICHIGAN

CITY           SKY/WX    TMP DP  RH WIND       PRES   REMARKS
KINROSS        CLOUDY    38  32  79 N8        30.04S WCI  32
MACKINAC ISLAN CLOUDY    38  35  88 N10       30.04R WCI  31
NEWBERRY       CLOUDY    33  32  98 N8        30.07S WCI  25
MUNISING         N/A     34  30  85 N17       30.14R WCI  23
$$
MIZ004>006-011>014-085-251200-
CENTRAL UPPER MICHIGAN

CITY           SKY/WX    TMP DP  RH WIND       PRES   REMARKS
MANISTIQUE     FAIR      32  30  94 NW8       30.10R WCI  25
ESCANABA       FAIR      33  27  78 N6        30.15S WCI  28
MENOMINEE      FAIR      33  28  81 N12       30.16R WCI  24
SAWYER-GWINN   MOCLDY    30  27  86 N12       30.15R WCI  21
$$
MIZ001>003-009>011-084-251200-
WESTERN UPPER MICHIGAN

CITY           SKY/WX    TMP DP  RH WIND       PRES   REMARKS
IRON MOUNTAIN  FAIR      29  25  85 NW6       30.15S WCI  23
HOUGHTON       FAIR      30  23  75 N9        30.20S WCI  22
COPPER HARBOR    N/A     34  29  82 NE7       30.20S WCI  28
IRONWOOD       FAIR      23  22  96 CALM      30.24R
$$

ABBREVIATIONS USED IN REMARKS
   TC - TEMPERATURE IN CELSIUS
  WCI - WIND CHILL INDEX
   HX - HEAT INDEX
  VSB - VISIBILITY




USA.gov is the U.S. government's official web portal to all federal, state and local government web resources and services.